YZ-1S DEB, 43644

Orbit data source: Space-Track

YZ-1S DEB, 43644 is space debris in SSO originally from a launch on Tue, 09 Oct 2018 UTC launched from the Jiuquan Satellite Launch Center, China (JSC). Debris objects in space refer to the collection of defunct objects orbiting the Earth. Examples of debris include non-operational satellites, rocket bodies, and fragments generated from explosions, collisions, or faulty payload assembly.

Loading next visibility...
Identifier
43644, 2018-077C
Orbit
SSO
Country
Flag of CNCN / PRC
Related business
Manufacturer
CALT
Mission
Spacecraft
Bus & Motor
Unknown
Mass
~200 kg wet, ~200 kg dry
Launch date (UTC)
2018-10-09 (7 years ago)
Launch vehicle
Unknown
Launch site
Jiuquan Satellite Launch Center, China (JSC)
Object type
Payload
Rocket body
Debris
Shape & HBR
Cyl + Cone, 1.5 m
Radar Cross Section
8.247 m², Large (>1 m²)

Expand to show TLE details & history
Last TLE update: 9 hours ago

TLE from 9 hours ago
0 YZ-1S DEB
1 43644U 18077C   25245.86526135  .00006327  00000-0  10512-2 0  9997
2 43644  97.9599 290.0536 0005779 255.7615 104.2950 14.70462827368385
Epoch: 2025-09-02T20:45Z
TLE epoch observation values (Epoch: 2025-09-02T20:45:58.58Z)
Latitude
-0.00002°
Longitude
-3.69085°
Altitude
663.604 km
Speed
7.525 km/s
True Right ascension
19h 20m 12s
True Declination
0° 00' 00"
Sunlit
Object was in full shadow at epoch
Visualization orbit readout
Latitude
Unknown
Longitude
Unknown
Altitude
Unknown
Speed
Unknown
Apparent Right ascension
Unknown
Apparent Declination
Unknown
Sunlit
N/A
Visualization observer readout
Local Sidereal Time
21:13:01
Azimuth
Unknown
Elevation
Unknown
Doppler factor
Unknown
Orbital elements
Apogee altitude
660.713 km
Perigee altitude
652.582 km
Semi-major axis
7,034.784 km
Eccentricity
0.00058
Inclination
97.9599°
RAAN
290.0536°
Arg. of periapsis
255.7615°
True anomaly
104.35916°
Mean anomaly
104.295°
Eccentric anomaly
104.32708°
Mean motion
3.67847 °/min
Orbital period
97.87 mins
BSTAR
0.0010512
Loading maneuver chart data...
Computing Atmospheric mass density...
Loading historical data...
Loading historical data...
Loading historical data...
Loading historical data...
Loading historical data...
Loading historical data...
Loading historical data...
Other satellites on launch #77 in the year 2018 (2018-10-09 UTC)

Documentation

Showing up to 5 results
|